When you browse on this site, cookies collect data to enhance your experience and personalize the content and advertising you see.
Visit our Privacy Policy to learn more. By continuing to use the site, you agree to this use of cookies and data.
  • In Spain
  • List of Countries
  • For 7 days
  • Water Temperature
  • Satellite Maps
  • Weather Map
  • Weather Widgets
  • user-avatar
    Login

    Hourly Weather Vyazgino

    Today, 21 July, Sunday

    Time Temperature Precipitation Wind Pressure Humidity
    00:00 +13°C° 0 mm 2 mps 746 mmHg 86%
    01:00 +13°C° 0 mm 2 mps 746 mmHg 89%
    02:00 +13°C° 0 mm 1 mps 746 mmHg 93%
    03:00 +13°C° 0 mm 1 mps 746 mmHg 93%
    04:00 +13°C° 0 mm 1 mps 747 mmHg 92%
    05:00 +14°C° 0 mm 1 mps 747 mmHg 92%
    06:00 +16°C° 0 mm 1 mps 747 mmHg 86%
    07:00 +19°C° 0 mm 1 mps 747 mmHg 79%
    08:00 +21°C° 0 mm 1 mps 747 mmHg 72%
    09:00 +21°C° 0 mm 2 mps 747 mmHg 67%
    10:00 +23°C° 0 mm 2 mps 747 mmHg 62%
    11:00 +24°C° 0 mm 2 mps 747 mmHg 57%
    12:00 +25°C° 0.1 mm 2 mps 747 mmHg 58%
    13:00 +25°C° 0.1 mm 2 mps 747 mmHg 58%
    14:00 +25°C° 0.1 mm 2 mps 747 mmHg 59%
    15:00 +25°C° 0.3 mm 2 mps 747 mmHg 63%
    16:00 +24°C° 0.3 mm 2 mps 747 mmHg 67%
    17:00 +24°C° 0.3 mm 2 mps 747 mmHg 70%
    18:00 +22°C° 0.1 mm 1 mps 746 mmHg 76%
    19:00 +21°C° 0.1 mm 1 mps 746 mmHg 81%
    20:00 +17°C° 0.1 mm 0 mps 746 mmHg 87%
    21:00 +18°C° 0 mm 1 mps 746 mmHg 87%
    22:00 +16°C° 0 mm 1 mps 746 mmHg 88%
    23:00 +16°C° 0 mm 1 mps 746 mmHg 89%

    Tomorrow, 22 July, Monday

    Time Temperature Precipitation Wind Pressure Humidity
    00:00 +15°C° 0 mm 1 mps 746 mmHg 89%
    01:00 +15°C° 0 mm 1 mps 746 mmHg 89%
    02:00 +13°C° 0 mm 0 mps 746 mmHg 90%
    03:00 +14°C° 0 mm 0 mps 746 mmHg 89%
    04:00 +14°C° 0 mm 0 mps 746 mmHg 89%
    05:00 +15°C° 0 mm 1 mps 746 mmHg 88%
    06:00 +18°C° 0 mm 1 mps 746 mmHg 83%
    07:00 +20°C° 0 mm 1 mps 746 mmHg 78%
    08:00 +22°C° 0 mm 1 mps 745 mmHg 73%
    09:00 +23°C° 0 mm 1 mps 745 mmHg 67%
    10:00 +24°C° 0 mm 1 mps 745 mmHg 62%
    11:00 +25°C° 0 mm 2 mps 745 mmHg 57%
    12:00 +25°C° 0.3 mm 2 mps 745 mmHg 60%
    13:00 +25°C° 0.3 mm 2 mps 745 mmHg 63%
    14:00 +24°C° 0.3 mm 2 mps 744 mmHg 66%
    15:00 +21°C° 0.3 mm 2 mps 744 mmHg 75%
    16:00 +20°C° 0.3 mm 2 mps 744 mmHg 84%
    17:00 +18°C° 0.3 mm 2 mps 744 mmHg 94%
    18:00 +17°C° 0.9 mm 2 mps 744 mmHg 95%
    19:00 +17°C° 0.9 mm 2 mps 743 mmHg 97%
    20:00 +17°C° 0.9 mm 2 mps 743 mmHg 98%
    21:00 +16°C° 1 mm 2 mps 743 mmHg 98%
    22:00 +16°C° 1 mm 2 mps 743 mmHg 98%
    23:00 +16°C° 1 mm 2 mps 743 mmHg 98%

    Day after tomorrow, 23 July, Tuesday

    Time Temperature Precipitation Wind Pressure Humidity
    00:00 +16°C° 1.1 mm 2 mps 743 mmHg 98%
    01:00 +16°C° 1.1 mm 2 mps 742 mmHg 98%
    02:00 +16°C° 1.1 mm 2 mps 742 mmHg 98%
    03:00 +16°C° 1.8 mm 2 mps 742 mmHg 98%
    04:00 +16°C° 1.8 mm 2 mps 742 mmHg 98%
    05:00 +16°C° 1.8 mm 3 mps 742 mmHg 98%
    06:00 +16°C° 0.6 mm 3 mps 742 mmHg 98%
    07:00 +16°C° 0.6 mm 3 mps 742 mmHg 98%
    08:00 +16°C° 0.6 mm 3 mps 742 mmHg 98%
    09:00 +16°C° 0.3 mm 2 mps 742 mmHg 97%
    10:00 +16°C° 0.3 mm 2 mps 742 mmHg 96%
    11:00 +17°C° 0.3 mm 2 mps 743 mmHg 96%
    12:00 +17°C° 0.1 mm 2 mps 743 mmHg 95%
    13:00 +17°C° 0.1 mm 2 mps 743 mmHg 94%
    14:00 +18°C° 0.1 mm 2 mps 743 mmHg 94%
    15:00 +19°C° 0.1 mm 2 mps 743 mmHg 90%
    16:00 +19°C° 0.1 mm 2 mps 743 mmHg 87%
    17:00 +20°C° 0.1 mm 2 mps 743 mmHg 84%
    18:00 +19°C° 0.1 mm 2 mps 743 mmHg 87%
    19:00 +18°C° 0.1 mm 2 mps 743 mmHg 89%
    20:00 +17°C° 0.1 mm 2 mps 743 mmHg 92%
    21:00 +16°C° 0 mm 2 mps 743 mmHg 93%
    22:00 +16°C° 0 mm 1 mps 744 mmHg 94%
    23:00 +15°C° 0 mm 1 mps 744 mmHg 95%

    24 July, Wednesday

    Time Temperature Precipitation Wind Pressure Humidity
    00:00 +14°C° 0 mm 1 mps 744 mmHg 94%
    01:00 +14°C° 0 mm 1 mps 744 mmHg 94%
    02:00 +13°C° 0 mm 1 mps 744 mmHg 94%
    03:00 +14°C° 0 mm 1 mps 744 mmHg 94%
    04:00 +14°C° 0 mm 1 mps 744 mmHg 95%
    05:00 +14°C° 0 mm 1 mps 744 mmHg 95%
    06:00 +16°C° 0 mm 1 mps 744 mmHg 90%
    07:00 +18°C° 0 mm 1 mps 744 mmHg 84%
    08:00 +20°C° 0 mm 1 mps 745 mmHg 79%
    09:00 +22°C° 0 mm 1 mps 745 mmHg 72%
    10:00 +24°C° 0 mm 1 mps 745 mmHg 64%
    11:00 +25°C° 0 mm 1 mps 745 mmHg 57%
    12:00 +25°C° 0 mm 1 mps 745 mmHg 56%
    13:00 +25°C° 0 mm 1 mps 745 mmHg 56%
    14:00 +26°C° 0 mm 1 mps 745 mmHg 56%
    15:00 +25°C° 0 mm 2 mps 745 mmHg 57%
    16:00 +25°C° 0 mm 2 mps 745 mmHg 59%
    17:00 +25°C° 0 mm 2 mps 745 mmHg 60%
    18:00 +23°C° 0 mm 1 mps 745 mmHg 66%
    19:00 +21°C° 0 mm 1 mps 745 mmHg 71%
    20:00 +20°C° 0 mm 1 mps 745 mmHg 76%
    21:00 +19°C° 0 mm 1 mps 745 mmHg 79%
    22:00 +18°C° 0 mm 1 mps 745 mmHg 82%
    23:00 +16°C° 0 mm 1 mps 746 mmHg 85%

    25 July, Thursday

    Time Temperature Precipitation Wind Pressure Humidity
    00:00 +16°C° 0 mm 1 mps 746 mmHg 85%
    01:00 +15°C° 0 mm 1 mps 746 mmHg 86%
    02:00 +15°C° 0 mm 1 mps 746 mmHg 87%
    03:00 +15°C° 0 mm 1 mps 746 mmHg 87%
    04:00 +15°C° 0 mm 1 mps 746 mmHg 87%
    05:00 +15°C° 0 mm 1 mps 746 mmHg 87%
    06:00 +18°C° 0 mm 1 mps 746 mmHg 83%
    07:00 +20°C° 0 mm 1 mps 746 mmHg 79%
    08:00 +21°C° 0 mm 2 mps 746 mmHg 75%
    09:00 +23°C° 0 mm 2 mps 746 mmHg 70%
    10:00 +25°C° 0 mm 2 mps 746 mmHg 65%
    11:00 +26°C° 0 mm 2 mps 746 mmHg 60%
    12:00 +26°C° 0 mm 2 mps 746 mmHg 60%
    13:00 +27°C° 0 mm 3 mps 746 mmHg 59%
    14:00 +27°C° 0 mm 4 mps 746 mmHg 59%
    15:00 +26°C° 0.1 mm 4 mps 745 mmHg 62%
    16:00 +26°C° 0.1 mm 4 mps 745 mmHg 65%
    17:00 +25°C° 0.1 mm 4 mps 745 mmHg 68%
    18:00 +24°C° 0 mm 3 mps 745 mmHg 74%
    19:00 +21°C° 0 mm 3 mps 745 mmHg 80%
    20:00 +20°C° 0 mm 2 mps 745 mmHg 86%
    21:00 +19°C° 0 mm 2 mps 745 mmHg 88%
    22:00 +18°C° 0 mm 2 mps 745 mmHg 90%
    23:00 +17°C° 0 mm 2 mps 745 mmHg 92%

    26 July, Friday

    Time Temperature Precipitation Wind Pressure Humidity
    00:00 +16°C° 0 mm 2 mps 745 mmHg 92%
    01:00 +16°C° 0 mm 2 mps 745 mmHg 93%
    02:00 +15°C° 0 mm 1 mps 745 mmHg 94%
    03:00 +15°C° 0 mm 1 mps 744 mmHg 93%
    04:00 +15°C° 0 mm 1 mps 744 mmHg 93%
    05:00 +15°C° 0 mm 1 mps 744 mmHg 93%
    06:00 +17°C° 0 mm 2 mps 744 mmHg 83%
    07:00 +18°C° 0 mm 3 mps 744 mmHg 74%
    08:00 +20°C° 0 mm 3 mps 743 mmHg 65%
    09:00 +21°C° 0 mm 4 mps 743 mmHg 60%
    10:00 +22°C° 0 mm 4 mps 743 mmHg 55%
    11:00 +23°C° 0 mm 4 mps 743 mmHg 50%
    12:00 +23°C° 0 mm 5 mps 742 mmHg 51%
    13:00 +22°C° 0 mm 5 mps 742 mmHg 53%
    14:00 +22°C° 0 mm 5 mps 742 mmHg 55%
    15:00 +22°C° 0 mm 5 mps 742 mmHg 56%
    16:00 +22°C° 0 mm 4 mps 741 mmHg 57%
    17:00 +22°C° 0 mm 4 mps 741 mmHg 58%
    18:00 +20°C° 0 mm 3 mps 741 mmHg 66%
    19:00 +18°C° 0 mm 3 mps 741 mmHg 74%
    20:00 +16°C° 0 mm 2 mps 741 mmHg 81%
    21:00 +15°C° 0 mm 2 mps 741 mmHg 85%
    22:00 +13°C° 0 mm 3 mps 741 mmHg 89%
    23:00 +13°C° 0 mm 3 mps 740 mmHg 93%
    Show more